This is the latest recevied weather packets stored in our database for station/object YO8SDE-8. If no packets are shown the sender has not sent any weather packets the latest 10 day(s).
| Time | Temp. | Humidity | Pressure | Rain* | Wind** | Luminosity | Snow |
|---|---|---|---|---|---|---|---|
| 1777619466 | 12.78° C | 35% | 1015.1 hPa | 0 mm | - | - | - |
| 1777619166 | 12.22° C | 34% | 1015.1 hPa | 0 mm | - | - | - |
| 1777618866 | 11.67° C | 34% | 1015.2 hPa | 0 mm | - | - | - |
| 1777618565 | 11.67° C | 35% | 1015 hPa | 0 mm | - | - | - |
| 1777618266 | 12.22° C | 34% | 1015.1 hPa | 0 mm | - | - | - |
| 1777617966 | 11.11° C | 39% | 1015 hPa | 0 mm | - | - | - |
| 1777617666 | 10.56° C | 37% | 1015.1 hPa | 0 mm | - | - | - |
| 1777617366 | 10.56° C | 40% | 1015.1 hPa | 0 mm | - | - | - |
| 1777617065 | 10° C | 40% | 1015.3 hPa | 0 mm | - | - | - |
| 1777616766 | 10° C | 42% | 1015.3 hPa | 0 mm | - | - | - |
| 1777616466 | 9.44° C | 46% | 1015 hPa | 0 mm | - | - | - |
| 1777616166 | 8.89° C | 49% | 1015.1 hPa | 0 mm | - | - | - |
| 1777615866 | 8.89° C | 48% | 1015.1 hPa | 0 mm | - | - | - |
| 1777615566 | 8.33° C | 48% | 1015.1 hPa | 0 mm | - | - | - |
| 1777615266 | 8.33° C | 50% | 1015.2 hPa | 0 mm | - | - | - |
| 1777614966 | 7.78° C | 49% | 1015.2 hPa | 0 mm | - | - | - |
| 1777614666 | 7.78° C | 51% | 1015.2 hPa | 0 mm | - | - | - |
| 1777614366 | 7.78° C | 53% | 1015.1 hPa | 0 mm | - | - | - |
| 1777614066 | 7.22° C | 52% | 1015.4 hPa | 0 mm | - | - | - |
| 1777613766 | 7.22° C | 53% | 1015.2 hPa | 0 mm | - | - | - |
| 1777613466 | 6.67° C | 55% | 1015.3 hPa | 0 mm | - | - | - |
| 1777613166 | 6.67° C | 55% | 1015.2 hPa | 0 mm | - | - | - |
| 1777612866 | 6.11° C | 55% | 1015.3 hPa | 0 mm | - | - | - |
| 1777612566 | 6.11° C | 56% | 1015.2 hPa | 0 mm | - | - | - |
| 1777612266 | 5.56° C | 59% | 1015.1 hPa | 0 mm | - | - | - |
* Rain latest hour (hover to see other rain measurements)
** Current wind speed in m/s (hover to see current wind gust speed)